Find Starlink 30589

NORAD ID: 58103 Int'l Des: 2023-161 Owner: SPXS Country: US Constellation: starlink operational
LEOCIRCULAR

Current View

Loading 3D Globe...

About Starlink 30589

Starlink 30589 (NORAD 58103) is a starlink constellation satellite (v2 mini) launched Oct 21, 2023 by SPXS of US. It operates in LEO, CIRCULAR orbit with a mass of 730.00 kg.

Upcoming Passes

Passes for default location (London). Set your location on the main map for personalized predictions.

Altitude History

Loading altitude history...

Two-Line Element Set

1 58103U 23161G 26236.93047722 .00000668 00000-0 30914-4 0 9994
2 58103 53.1626 103.6229 0001514 99.6818 260.4356 15.34392038160187
Epoch: Aug 24, 2026 • Age: 12 hours

Current Status

Altitude 465.2 km
Apogee / Perigee N/A
Velocity 7.63 km/s
Sub-Earth Point -7.29°S, 39.96°W
Launch Date Oct 21, 2023
Age 2.8 years
Type internet

Technical Details

Classification Payload
Mass 730.00 kg
Dry Mass 700.00 kg
Total Mass 730.00 kg
Length 0.30 m
Diameter 4.10 m
Span 29.00 m
Shape Box + pan
Manufacturer SPXS
Bus Type Starlink V2M
Phase Status In Orbit
Owner/State SPXS/US

Most Searched